MST,Max TemperatureF,Mean TemperatureF,Min TemperatureF,Max Dew PointF,MeanDew PointF,Min DewpointF,Max Humidity, Mean Humidity, Min Humidity, Max Sea Level PressureIn, Mean Sea Level PressureIn, Min Sea Level PressureIn, Max VisibilityMiles, Mean VisibilityMiles, Min VisibilityMiles, Max Wind SpeedMPH, Mean Wind SpeedMPH, Max Gust SpeedMPH,PrecipitationIn, CloudCover, Events, WindDirDegrees
2013-1-1,27,16,6,12,9,2,96,77,46,30.08,30.02,29.95,10,10,0,10,6,16,0.00,4,Snow,276
2013-1-2,29,18,7,8,3,-2,77,54,28,30.22,30.12,30.05,10,10,10,15,8,20,0.00,2,,351
2013-1-3,33,18,3,2,-4,-11,75,43,15,30.24,30.20,30.14,10,10,10,12,6,,0.00,1,,301
2013-1-4,43,26,10,6,0,-11,51,29,13,30.17,30.06,30.00,10,10,10,14,6,21,0.00,0,,346
2013-1-5,39,28,18,12,8,2,72,45,30,30.29,30.16,29.99,10,10,10,23,13,31,0.00,0,,340
2013-1-6,45,27,9,12,4,-2,84,42,15,30.28,30.12,29.97,10,10,10,15,5,22,0.00,0,,253
2013-1-7,49,34,19,9,4,-4,60,30,11,30.03,29.95,29.86,10,10,10,12,6,20,0.00,1,,288
2013-1-8,53,37,21,13,5,-8,67,28,13,30.27,29.99,29.80,10,10,10,18,9,26,0.00,0,,257
2013-1-9,47,32,17,19,13,9,81,53,23,30.40,30.26,30.13,10,10,10,18,6,24,0.00,0,,218
2013-1-10,46,32,17,22,11,2,76,43,16,30.12,29.78,29.54,10,10,10,21,6,30,0.00,0,,221
2013-1-11,37,21,5,21,2,-18,95,44,11,29.72,29.48,29.30,10,10,7,38,14,53,0.00,1,,234
2013-1-12,16,8,1,2,-5,-15,82,55,25,29.86,29.79,29.71,10,10,2,17,8,22,0.00,3,Snow,11
2013-1-13,14,6,-2,2,-1,-6,88,76,49,29.96,29.90,29.84,10,7,2,8,4,,0.00,6,Snow,186
2013-1-14,14,6,-2,7,2,-6,89,84,71,29.98,29.94,29.88,10,7,0,9,4,,0.00,6,Snow,76
2013-1-15,28,12,-5,19,2,-11,87,57,29,30.09,30.01,29.93,10,10,7,16,7,21,0.00,5,Snow,319
2013-1-16,47,33,19,20,15,11,79,52,28,30.38,30.22,30.09,10,10,10,14,8,21,0.00,1,,338
2013-1-17,44,30,16,19,13,9,85,57,30,30.46,30.37,30.24,10,10,10,15,5,20,0.00,0,,239
2013-1-18,55,36,18,13,-3,-8,75,22,8,30.24,30.17,30.11,10,10,10,13,9,16,0.00,0,,290
2013-1-19,52,39,26,4,0,-2,37,21,11,30.29,30.22,30.11,10,10,10,16,9,25,0.00,0,,267
2013-1-20,46,31,16,12,2,-13,81,30,10,30.26,30.19,30.12,10,10,10,20,10,29,0.00,0,,340
2013-1-21,49,32,14,14,6,-8,93,39,15,30.22,30.15,30.11,10,10,10,12,6,18,0.00,0,,262
2013-1-22,63,45,27,-7,-12,-16,22,11,4,30.24,30.16,30.08,10,10,10,22,11,33,0.00,0,,294
2013-1-23,66,47,28,-2,-13,-19,27,10,4,30.26,30.22,30.18,10,10,10,16,8,18,0.00,0,,286
2013-1-24,64,49,34,19,1,-10,43,16,7,30.21,30.11,30.01,10,10,1,20,11,29,0.00,0,,300
2013-1-25,47,36,26,24,20,14,70,53,36,30.26,30.17,30.10,10,10,10,17,8,23,0.00,0,,236
2013-1-26,54,41,28,30,24,20,77,54,27,30.10,29.96,29.75,10,10,10,15,7,18,0.00,4,,254
2013-1-27,58,42,26,30,23,11,91,54,18,29.83,29.77,29.70,10,10,10,21,6,28,0.00,1,,279
2013-1-28,54,39,24,28,22,10,100,62,18,29.78,29.67,29.55,10,9,1,29,9,39,0.00,2,,205
2013-1-29,25,20,14,25,13,3,100,77,39,29.84,29.67,29.58,10,5,0,21,12,29,0.00,6,Fog-Snow,10
2013-1-30,35,18,0,13,6,-6,87,58,35,29.89,29.83,29.78,10,10,3,15,9,21,0.00,2,Snow,294
2013-1-31,42,28,14,21,13,3,85,53,33,30.14,30.04,29.89,10,10,10,16,5,21,0.00,0,,290